Time,TemperatureF,DewpointF,PressureIn,WindDirection,WindDirectionDegrees,WindSpeedMPH,WindSpeedGustMPH,Humidity,HourlyPrecipIn,Conditions,Clouds,dailyrainin,SoftwareType,DateUTC
2013-04-26 00:02:00,60.4,28.8,29.97,ENE,68,2.4,3.5,30,0.00,CLR,,0.00,WeatherDisplay:10.37,2013-04-26 05:02:00,
2013-04-26 00:07:00,60.3,28.7,29.97,NE,45,2.9,3.6,30,0.00,CLR,,0.00,WeatherDisplay:10.37,2013-04-26 05:07:00,
2013-04-26 00:12:00,60.3,28.7,29.97,ENE,68,2.4,3.5,30,0.00,CLR,,0.00,WeatherDisplay:10.37,2013-04-26 05:12:00,
2013-04-26 00:17:00,60.1,28.5,29.97,NE,45,2.6,4.6,30,0.00,CLR,,0.00,WeatherDisplay:10.37,2013-04-26 05:17:00,
2013-04-26 00:22:00,60.1,27.7,29.97,NE,45,2.6,3.5,29,0.00,CLR,,0.00,WeatherDisplay:10.37,2013-04-26 05:22:00,
2013-04-26 00:27:00,60.3,27.8,29.97,NE,45,2.9,4.6,29,0.00,CLR,,0.00,WeatherDisplay:10.37,2013-04-26 05:27:00,
2013-04-26 00:32:00,60.4,27.1,29.97,ENE,68,3.8,5.8,28,0.00,CLR,,0.00,WeatherDisplay:10.37,2013-04-26 05:32:00,
2013-04-26 00:37:00,60.6,26.4,29.94,NE,45,4.3,6.4,27,0.00,CLR,,0.00,WeatherDisplay:10.37,2013-04-26 05:37:00,
2013-04-26 00:42:00,60.8,26.6,29.94,ENE,68,4.7,5.9,27,0.00,CLR,,0.00,WeatherDisplay:10.37,2013-04-26 05:42:00,
2013-04-26 00:47:00,61.0,25.8,29.94,ENE,68,6.2,8.1,26,0.00,CLR,,0.00,WeatherDisplay:10.37,2013-04-26 05:47:00,
2013-04-26 00:52:00,61.0,25.8,29.94,NE,45,4.3,5.8,26,0.00,CLR,,0.00,WeatherDisplay:10.37,2013-04-26 05:52:00,
2013-04-26 00:57:00,61.2,26.0,29.94,NE,45,4.7,6.2,26,0.00,CLR,,0.00,WeatherDisplay:10.37,2013-04-26 05:57:00,
2013-04-26 01:02:00,61.0,25.8,29.94,NE,45,5.4,6.9,26,0.00,CLR,,0.00,WeatherDisplay:10.37,2013-04-26 06:02:00,
2013-04-26 01:07:00,61.3,26.1,29.94,ENE,68,5.4,8.1,26,0.00,CLR,,0.00,WeatherDisplay:10.37,2013-04-26 06:07:00,
2013-04-26 01:12:00,61.2,25.0,29.94,NE,45,4.7,7.1,25,0.00,CLR,,0.00,WeatherDisplay:10.37,2013-04-26 06:12:00,
2013-04-26 01:17:00,61.3,25.2,29.94,East,90,4.5,8.1,25,0.00,CLR,,0.00,WeatherDisplay:10.37,2013-04-26 06:17:00,
2013-04-26 01:22:00,61.2,25.0,29.94,NNE,22,4.3,6.2,25,0.00,CLR,,0.00,WeatherDisplay:10.37,2013-04-26 06:22:00,
2013-04-26 01:27:00,61.3,25.2,29.94,ENE,68,6.2,6.2,25,0.00,CLR,,0.00,WeatherDisplay:10.37,2013-04-26 06:27:00,
2013-04-26 01:32:00,61.3,25.2,29.94,ENE,68,4.0,5.8,25,0.00,CLR,,0.00,WeatherDisplay:10.37,2013-04-26 06:32:00,
2013-04-26 01:37:00,61.0,24.9,29.94,NE,45,3.1,9.2,25,0.00,CLR,,0.00,WeatherDisplay:10.37,2013-04-26 06:37:00,
2013-04-26 01:42:00,61.0,24.9,29.94,ENE,68,3.6,5.8,25,0.00,CLR,,0.00,WeatherDisplay:10.37,2013-04-26 06:42:00,
2013-04-26 01:47:00,60.8,24.7,29.94,ENE,68,3.8,5.8,25,0.00,CLR,,0.00,WeatherDisplay:10.37,2013-04-26 06:47:00,
2013-04-26 01:52:00,60.6,25.5,29.94,NE,45,4.3,5.8,26,0.00,CLR,,0.00,WeatherDisplay:10.37,2013-04-26 06:52:00,
2013-04-26 01:57:00,60.6,25.5,29.94,NE,45,4.0,4.7,26,0.00,CLR,,0.00,WeatherDisplay:10.37,2013-04-26 06:57:00,
2013-04-26 02:02:00,60.4,25.4,29.94,NE,45,3.3,5.8,26,0.00,CLR,,0.00,WeatherDisplay:10.37,2013-04-26 07:02:00,
2013-04-26 02:07:00,60.4,25.4,29.91,NNE,22,4.0,5.9,26,0.00,CLR,,0.00,WeatherDisplay:10.37,2013-04-26 07:07:00,
2013-04-26 02:12:00,60.3,25.2,29.91,NE,45,3.6,4.6,26,0.00,CLR,,0.00,WeatherDisplay:10.37,2013-04-26 07:12:00,
2013-04-26 02:17:00,60.1,25.0,29.91,NE,45,3.3,5.8,26,0.00,CLR,,0.00,WeatherDisplay:10.37,2013-04-26 07:17:00,
2013-04-26 02:22:00,60.1,25.0,29.91,NE,45,3.1,4.6,26,0.00,CLR,,0.00,WeatherDisplay:10.37,2013-04-26 07:22:00,
2013-04-26 02:27:00,59.9,24.9,29.91,NE,45,3.6,5.8,26,0.00,CLR,,0.00,WeatherDisplay:10.37,2013-04-26 07:27:00,
2013-04-26 02:32:00,59.7,24.7,29.91,NE,45,4.7,5.8,26,0.00,CLR,,0.00,WeatherDisplay:10.37,2013-04-26 07:32:00,
2013-04-26 02:37:00,59.5,24.6,29.91,ENE,68,4.5,5.6,26,0.00,CLR,,0.00,WeatherDisplay:10.37,2013-04-26 07:37:00,
2013-04-26 02:42:00,59.4,25.3,29.91,NE,45,3.8,6.9,27,0.00,CLR,,0.00,WeatherDisplay:10.37,2013-04-26 07:42:00,
2013-04-26 02:47:00,59.4,25.3,29.91,ENE,68,3.8,5.6,27,0.00,CLR,,0.00,WeatherDisplay:10.37,2013-04-26 07:47:00,
2013-04-26 02:52:00,59.2,25.2,29.91,ENE,68,3.3,4.6,27,0.00,CLR,,0.00,WeatherDisplay:10.37,2013-04-26 07:52:00,
2013-04-26 02:57:00,59.0,25.0,29.91,NE,45,3.3,4.6,27,0.00,CLR,,0.00,WeatherDisplay:10.37,2013-04-26 07:57:00,
2013-04-26 03:02:00,59.0,25.0,29.91,NE,45,4.5,5.4,27,0.00,CLR,,0.00,WeatherDisplay:10.37,2013-04-26 08:02:00,
2013-04-26 03:07:00,59.0,25.0,29.91,NE,45,3.3,5.8,27,0.00,CLR,,0.00,WeatherDisplay:10.37,2013-04-26 08:07:00,
2013-04-26 03:12:00,59.0,25.0,29.91,ENE,68,4.0,5.9,27,0.00,CLR,,0.00,WeatherDisplay:10.37,2013-04-26 08:12:00,
2013-04-26 03:17:00,59.0,25.0,29.91,NE,45,3.8,4.6,27,0.00,CLR,,0.00,WeatherDisplay:10.37,2013-04-26 08:17:00,
2013-04-26 03:22:00,58.8,24.9,29.91,ENE,68,3.1,4.6,27,0.00,CLR,,0.00,WeatherDisplay:10.37,2013-04-26 08:22:00,
2013-04-26 03:27:00,58.6,25.6,29.91,ENE,68,3.1,4.6,28,0.00,CLR,,0.00,WeatherDisplay:10.37,2013-04-26 08:27:00,
2013-04-26 03:32:00,58.5,25.4,29.91,NE,45,3.3,4.0,28,0.00,CLR,,0.00,WeatherDisplay:10.37,2013-04-26 08:32:00,
2013-04-26 03:37:00,58.3,25.3,29.91,ENE,68,2.6,4.6,28,0.00,CLR,,0.00,WeatherDisplay:10.37,2013-04-26 08:37:00,
2013-04-26 03:42:00,58.1,25.1,29.91,ENE,68,2.4,4.6,28,0.00,CLR,,0.00,WeatherDisplay:10.37,2013-04-26 08:42:00,
2013-04-26 03:47:00,57.9,25.8,29.91,NE,45,3.3,4.6,29,0.00,CLR,,0.00,WeatherDisplay:10.37,2013-04-26 08:47:00,
2013-04-26 03:52:00,57.9,25.8,29.91,NE,45,2.4,4.0,29,0.00,CLR,,0.00,WeatherDisplay:10.37,2013-04-26 08:52:00,
2013-04-26 03:57:00,57.7,25.7,29.91,ENE,68,2.9,4.6,29,0.00,CLR,,0.00,WeatherDisplay:10.37,2013-04-26 08:57:00,
2013-04-26 04:02:00,57.6,26.3,29.91,East,90,2.6,3.8,30,0.00,CLR,,0.00,WeatherDisplay:10.37,2013-04-26 09:02:00,
2013-04-26 04:07:00,57.6,25.5,29.91,ENE,68,3.6,4.9,29,0.00,CLR,,0.00,WeatherDisplay:10.37,2013-04-26 09:07:00,
2013-04-26 04:12:00,57.6,26.3,29.91,East,90,2.6,3.5,30,0.00,CLR,,0.00,WeatherDisplay:10.37,2013-04-26 09:12:00,
2013-04-26 04:17:00,57.2,26.0,29.91,NE,45,2.6,2.9,30,0.00,CLR,,0.00,WeatherDisplay:10.37,2013-04-26 09:17:00,
2013-04-26 04:22:00,57.2,26.0,29.91,East,90,4.0,4.6,30,0.00,CLR,,0.00,WeatherDisplay:10.37,2013-04-26 09:22:00,
2013-04-26 04:27:00,57.0,26.6,29.91,NE,45,2.4,4.0,31,0.00,CLR,,0.00,WeatherDisplay:10.37,2013-04-26 09:27:00,
2013-04-26 04:32:00,57.0,26.6,29.91,NE,45,3.1,5.8,31,0.00,CLR,,0.00,WeatherDisplay:10.37,2013-04-26 09:32:00,
2013-04-26 04:37:00,56.8,27.3,29.91,NNE,22,3.1,3.5,32,0.00,CLR,,0.00,WeatherDisplay:10.37,2013-04-26 09:37:00,
2013-04-26 04:42:00,56.7,27.1,29.91,ENE,68,2.6,3.5,32,0.00,CLR,,0.00,WeatherDisplay:10.37,2013-04-26 09:42:00,
2013-04-26 04:47:00,56.7,27.1,29.91,East,90,2.2,4.6,32,0.00,CLR,,0.00,WeatherDisplay:10.37,2013-04-26 09:47:00,
2013-04-26 04:52:00,56.5,26.9,29.91,NE,45,2.4,3.5,32,0.00,CLR,,0.00,WeatherDisplay:10.37,2013-04-26 09:52:00,
2013-04-26 04:57:00,56.3,27.5,29.91,ENE,68,2.6,3.6,33,0.00,CLR,,0.00,WeatherDisplay:10.37,2013-04-26 09:57:00,
2013-04-26 05:02:00,56.3,27.5,29.91,NE,45,2.9,4.6,33,0.00,CLR,,0.00,WeatherDisplay:10.37,2013-04-26 10:02:00,
2013-04-26 05:07:00,56.3,27.5,29.91,ENE,68,2.2,3.5,33,0.00,CLR,,0.00,WeatherDisplay:10.37,2013-04-26 10:07:00,
2013-04-26 05:12:00,56.1,28.1,29.91,NE,45,2.4,2.4,34,0.00,CLR,,0.00,WeatherDisplay:10.37,2013-04-26 10:12:00,
2013-04-26 05:17:00,55.9,28.7,29.91,NE,45,2.2,3.5,35,0.00,CLR,,0.00,WeatherDisplay:10.37,2013-04-26 10:17:00,
2013-04-26 05:22:00,55.8,28.5,29.91,NE,45,2.9,3.8,35,0.00,CLR,,0.00,WeatherDisplay:10.37,2013-04-26 10:22:00,
2013-04-26 05:27:00,55.6,28.3,29.91,NE,45,2.9,3.5,35,0.00,CLR,,0.00,WeatherDisplay:10.37,2013-04-26 10:27:00,
2013-04-26 05:32:00,55.6,28.3,29.91,ENE,68,3.1,4.6,35,0.00,CLR,,0.00,WeatherDisplay:10.37,2013-04-26 10:32:00,
2013-04-26 05:37:00,55.8,28.5,29.91,ENE,68,4.0,5.8,35,0.00,CLR,,0.00,WeatherDisplay:10.37,2013-04-26 10:37:00,
2013-04-26 05:42:00,55.6,28.3,29.91,ENE,68,3.8,5.8,35,0.00,CLR,,0.00,WeatherDisplay:10.37,2013-04-26 10:42:00,
2013-04-26 05:47:00,55.6,28.3,29.91,East,90,3.8,4.9,35,0.00,CLR,,0.00,WeatherDisplay:10.37,2013-04-26 10:47:00,
2013-04-26 05:52:00,55.6,28.3,29.91,ENE,68,3.3,4.6,35,0.00,CLR,,0.00,WeatherDisplay:10.37,2013-04-26 10:52:00,
2013-04-26 05:57:00,55.4,28.2,29.91,ENE,68,2.4,3.5,35,0.00,CLR,,0.00,WeatherDisplay:10.37,2013-04-26 10:57:00,
2013-04-26 06:02:00,55.4,28.2,29.91,NE,45,3.6,4.6,35,0.00,CLR,,0.00,WeatherDisplay:10.37,2013-04-26 11:02:00,
2013-04-26 06:07:00,55.4,28.2,29.94,ENE,68,4.0,4.6,35,0.00,CLR,,0.00,WeatherDisplay:10.37,2013-04-26 11:07:00,
2013-04-26 06:12:00,55.4,28.2,29.94,NE,45,3.1,6.9,35,0.00,CLR,,0.00,WeatherDisplay:10.37,2013-04-26 11:12:00,
2013-04-26 06:17:00,55.6,28.3,29.94,ENE,68,3.6,4.6,35,0.00,CLR,,0.00,WeatherDisplay:10.37,2013-04-26 11:17:00,
2013-04-26 06:22:00,55.4,28.2,29.94,NE,45,3.6,4.7,35,0.00,CLR,,0.00,WeatherDisplay:10.37,2013-04-26 11:22:00,
2013-04-26 06:27:00,55.4,28.2,29.94,ENE,68,4.5,4.9,35,0.00,CLR,,0.00,WeatherDisplay:10.37,2013-04-26 11:27:00,
2013-04-26 06:32:00,55.6,28.3,29.94,East,90,2.9,4.6,35,0.00,CLR,,0.00,WeatherDisplay:10.37,2013-04-26 11:32:00,
2013-04-26 06:37:00,55.9,28.7,29.94,ENE,68,4.7,5.9,35,0.00,CLR,,0.00,WeatherDisplay:10.37,2013-04-26 11:37:00,
2013-04-26 06:42:00,56.1,28.1,29.94,East,90,4.0,4.6,34,0.00,CLR,,0.00,WeatherDisplay:10.37,2013-04-26 11:42:00,
2013-04-26 06:47:00,56.5,28.4,29.94,East,90,3.3,4.6,34,0.00,CLR,,0.00,WeatherDisplay:10.37,2013-04-26 11:47:00,
2013-04-26 06:52:00,56.7,28.6,29.94,ENE,68,4.0,4.9,34,0.00,CLR,,0.00,WeatherDisplay:10.37,2013-04-26 11:52:00,
2013-04-26 06:57:00,57.0,28.2,29.94,ENE,68,3.6,4.6,33,0.00,CLR,,0.00,WeatherDisplay:10.37,2013-04-26 11:57:00,
2013-04-26 07:02:00,57.2,27.6,29.94,East,90,4.0,4.6,32,0.00,CLR,,0.00,WeatherDisplay:10.37,2013-04-26 12:02:00,
2013-04-26 07:07:00,57.6,28.6,29.94,East,90,4.5,5.9,33,0.00,CLR,,0.00,WeatherDisplay:10.37,2013-04-26 12:07:00,
2013-04-26 07:12:00,57.7,28.0,29.94,NE,45,3.8,4.9,32,0.00,CLR,,0.00,WeatherDisplay:10.37,2013-04-26 12:12:00,
2013-04-26 07:17:00,58.1,28.4,29.94,ENE,68,4.0,6.2,32,0.00,CLR,,0.00,WeatherDisplay:10.37,2013-04-26 12:17:00,
2013-04-26 07:22:00,58.5,27.9,29.94,East,90,4.0,6.2,31,0.00,CLR,,0.00,WeatherDisplay:10.37,2013-04-26 12:22:00,
2013-04-26 07:27:00,58.8,27.4,29.94,ENE,68,4.3,6.0,30,0.00,CLR,,0.00,WeatherDisplay:10.37,2013-04-26 12:27:00,
2013-04-26 07:32:00,59.2,26.9,29.94,ENE,68,4.7,5.8,29,0.00,CLR,,0.00,WeatherDisplay:10.37,2013-04-26 12:32:00,
2013-04-26 07:37:00,59.4,26.2,29.94,NE,45,4.9,8.1,28,0.00,CLR,,0.00,WeatherDisplay:10.37,2013-04-26 12:37:00,
2013-04-26 07:42:00,59.9,25.8,29.94,ENE,68,5.9,6.2,27,0.00,CLR,,0.00,WeatherDisplay:10.37,2013-04-26 12:42:00,
2013-04-26 07:47:00,60.4,27.1,29.94,East,90,5.9,9.2,28,0.00,CLR,,0.00,WeatherDisplay:10.37,2013-04-26 12:47:00,
2013-04-26 07:52:00,60.6,26.4,29.94,East,90,4.9,6.9,27,0.00,CLR,,0.00,WeatherDisplay:10.37,2013-04-26 12:52:00,
2013-04-26 07:57:00,61.0,25.8,29.94,East,90,3.8,7.4,26,0.00,CLR,,0.00,WeatherDisplay:10.37,2013-04-26 12:57:00,
2013-04-26 08:02:00,61.5,26.3,29.94,East,90,6.2,9.7,26,0.00,CLR,,0.00,WeatherDisplay:10.37,2013-04-26 13:02:00,
2013-04-26 08:07:00,61.5,25.3,29.94,East,90,6.7,10.4,25,0.00,CLR,,0.00,WeatherDisplay:10.37,2013-04-26 13:07:00,
2013-04-26 08:12:00,62.2,26.9,29.94,East,90,4.5,5.8,26,0.00,CLR,,0.00,WeatherDisplay:10.37,2013-04-26 13:12:00,
2013-04-26 08:17:00,62.6,26.2,29.94,East,90,6.9,9.7,25,0.00,CLR,,0.00,WeatherDisplay:10.37,2013-04-26 13:17:00,
2013-04-26 08:22:00,63.0,26.6,29.94,ESE,112,6.4,7.8,25,0.00,CLR,,0.00,WeatherDisplay:10.37,2013-04-26 13:22:00,
2013-04-26 08:27:00,63.3,25.9,29.94,ENE,68,4.7,8.1,24,0.00,CLR,,0.00,WeatherDisplay:10.37,2013-04-26 13:27:00,
2013-04-26 08:32:00,64.0,27.5,29.94,East,90,4.9,5.8,25,0.00,CLR,,0.00,WeatherDisplay:10.37,2013-04-26 13:32:00,
2013-04-26 08:37:00,64.4,26.8,29.94,East,90,5.4,6.9,24,0.00,CLR,,0.00,WeatherDisplay:10.37,2013-04-26 13:37:00,
2013-04-26 08:42:00,64.8,27.1,29.94,East,90,5.6,8.7,24,0.00,CLR,,0.00,WeatherDisplay:10.37,2013-04-26 13:42:00,
2013-04-26 08:47:00,65.1,27.4,29.94,ESE,112,6.0,8.5,24,0.00,CLR,,0.00,WeatherDisplay:10.37,2013-04-26 13:47:00,
2013-04-26 08:52:00,65.5,27.7,29.97,ESE,112,6.0,8.1,24,0.00,CLR,,0.00,WeatherDisplay:10.37,2013-04-26 13:52:00,
2013-04-26 08:57:00,65.8,27.0,29.97,ENE,68,7.1,9.7,23,0.00,CLR,,0.00,WeatherDisplay:10.37,2013-04-26 13:57:00,
2013-04-26 09:02:00,65.8,27.0,29.97,East,90,7.4,11.5,23,0.00,CLR,,0.00,WeatherDisplay:10.37,2013-04-26 14:02:00,
2013-04-26 09:07:00,66.2,27.3,29.97,ENE,68,6.7,9.2,23,0.00,CLR,,0.00,WeatherDisplay:10.37,2013-04-26 14:07:00,
2013-04-26 09:12:00,66.7,27.7,29.97,East,90,5.4,9.2,23,0.00,CLR,,0.00,WeatherDisplay:10.37,2013-04-26 14:12:00,
2013-04-26 09:17:00,67.3,28.2,29.97,East,90,3.8,6.0,23,0.00,CLR,,0.00,WeatherDisplay:10.37,2013-04-26 14:17:00,
2013-04-26 09:22:00,67.6,28.5,29.97,East,90,6.2,8.1,23,0.00,CLR,,0.00,WeatherDisplay:10.37,2013-04-26 14:22:00,
2013-04-26 09:27:00,67.8,27.6,29.97,ESE,112,6.4,8.1,22,0.00,CLR,,0.00,WeatherDisplay:10.37,2013-04-26 14:27:00,
2013-04-26 09:32:00,67.8,27.6,29.97,ESE,112,6.9,9.2,22,0.00,CLR,,0.00,WeatherDisplay:10.37,2013-04-26 14:32:00,
2013-04-26 09:37:00,68.0,27.7,29.97,East,90,6.9,10.4,22,0.00,CLR,,0.00,WeatherDisplay:10.37,2013-04-26 14:37:00,
2013-04-26 09:42:00,68.5,28.2,29.97,SSE,158,6.7,10.4,22,0.00,CLR,,0.00,WeatherDisplay:10.37,2013-04-26 14:42:00,
2013-04-26 09:47:00,68.5,28.2,29.97,East,90,5.4,7.6,22,0.00,CLR,,0.00,WeatherDisplay:10.37,2013-04-26 14:47:00,
2013-04-26 09:52:00,69.1,28.6,29.97,East,90,4.7,9.2,22,0.00,CLR,,0.00,WeatherDisplay:10.37,2013-04-26 14:52:00,
2013-04-26 09:57:00,69.6,29.1,29.97,East,90,3.8,8.1,22,0.00,CLR,,0.00,WeatherDisplay:10.37,2013-04-26 14:57:00,
2013-04-26 10:02:00,69.6,29.1,29.97,ESE,112,4.5,8.1,22,0.00,CLR,,0.00,WeatherDisplay:10.37,2013-04-26 15:02:00,
2013-04-26 10:07:00,70.3,29.7,29.97,East,90,4.9,5.8,22,0.00,CLR,,0.00,WeatherDisplay:10.37,2013-04-26 15:07:00,
2013-04-26 10:12:00,70.7,30.0,29.97,East,90,4.3,5.8,22,0.00,CLR,,0.00,WeatherDisplay:10.37,2013-04-26 15:12:00,
2013-04-26 10:17:00,70.9,30.1,29.97,ENE,68,5.6,7.4,22,0.00,CLR,,0.00,WeatherDisplay:10.37,2013-04-26 15:17:00,
2013-04-26 10:22:00,71.1,26.7,29.97,NE,45,5.4,6.4,19,0.00,CLR,,0.00,WeatherDisplay:10.37,2013-04-26 15:22:00,
2013-04-26 10:27:00,71.2,30.4,29.97,East,90,5.9,6.9,22,0.00,CLR,,0.00,WeatherDisplay:10.37,2013-04-26 15:27:00,
2013-04-26 10:32:00,71.4,27.0,29.97,East,90,5.6,8.1,19,0.00,CLR,,0.00,WeatherDisplay:10.37,2013-04-26 15:32:00,
2013-04-26 10:37:00,72.0,29.9,30.00,ESE,112,4.7,6.9,21,0.00,CLR,,0.00,WeatherDisplay:10.37,2013-04-26 15:37:00,
2013-04-26 10:42:00,72.0,27.4,30.00,SSE,158,6.4,8.1,19,0.00,CLR,,0.00,WeatherDisplay:10.37,2013-04-26 15:42:00,
2013-04-26 10:47:00,72.5,30.3,30.00,SE,135,3.1,6.9,21,0.00,CLR,,0.00,WeatherDisplay:10.37,2013-04-26 15:47:00,
2013-04-26 10:52:00,72.9,28.2,30.00,SSE,158,5.9,6.9,19,0.00,CLR,,0.00,WeatherDisplay:10.37,2013-04-26 15:52:00,
2013-04-26 10:57:00,72.9,28.2,30.00,SSE,158,4.3,5.8,19,0.00,CLR,,0.00,WeatherDisplay:10.37,2013-04-26 15:57:00,
2013-04-26 11:02:00,72.9,28.2,30.00,SE,135,4.5,9.2,19,0.00,CLR,,0.00,WeatherDisplay:10.37,2013-04-26 16:02:00,
2013-04-26 11:07:00,73.0,28.3,30.00,East,90,5.4,8.1,19,0.00,CLR,,0.00,WeatherDisplay:10.37,2013-04-26 16:07:00,
2013-04-26 11:12:00,73.9,27.7,30.00,ENE,68,4.3,5.4,18,0.00,CLR,,0.00,WeatherDisplay:10.37,2013-04-26 16:12:00,
2013-04-26 11:17:00,74.3,28.0,30.00,ESE,112,5.4,7.1,18,0.00,CLR,,0.00,WeatherDisplay:10.37,2013-04-26 16:17:00,
2013-04-26 11:22:00,74.1,27.9,30.00,SE,135,5.4,7.4,18,0.00,CLR,,0.00,WeatherDisplay:10.37,2013-04-26 16:22:00,
2013-04-26 11:27:00,74.5,28.2,30.00,SSW,202,4.3,7.4,18,0.00,CLR,,0.00,WeatherDisplay:10.37,2013-04-26 16:27:00,
2013-04-26 11:32:00,73.8,27.6,30.00,East,90,4.5,8.1,18,0.00,CLR,,0.00,WeatherDisplay:10.37,2013-04-26 16:32:00,
2013-04-26 11:37:00,73.9,27.7,30.00,ESE,112,3.1,6.9,18,0.00,CLR,,0.00,WeatherDisplay:10.37,2013-04-26 16:37:00,
2013-04-26 11:42:00,73.8,27.6,30.00,ESE,112,4.3,6.9,18,0.00,CLR,,0.00,WeatherDisplay:10.37,2013-04-26 16:42:00,
2013-04-26 11:47:00,73.8,27.6,30.00,ENE,68,3.6,5.8,18,0.00,CLR,,0.00,WeatherDisplay:10.37,2013-04-26 16:47:00,
2013-04-26 11:52:00,73.9,27.7,30.00,East,90,3.1,6.9,18,0.00,CLR,,0.00,WeatherDisplay:10.37,2013-04-26 16:52:00,
2013-04-26 11:57:00,73.8,27.6,30.00,ENE,68,5.6,7.1,18,0.00,CLR,,0.00,WeatherDisplay:10.37,2013-04-26 16:57:00,
2013-04-26 12:02:00,73.6,27.4,30.00,ESE,112,5.6,5.8,18,0.00,CLR,,0.00,WeatherDisplay:10.37,2013-04-26 17:02:00,
2013-04-26 12:07:00,73.2,28.5,30.00,East,90,4.0,6.0,19,0.00,CLR,,0.00,WeatherDisplay:10.37,2013-04-26 17:07:00,
2013-04-26 12:12:00,73.2,28.5,30.00,ESE,112,5.4,6.9,19,0.00,CLR,,0.00,WeatherDisplay:10.37,2013-04-26 17:12:00,
2013-04-26 12:17:00,73.4,27.3,30.00,SE,135,2.4,3.5,18,0.00,CLR,,0.00,WeatherDisplay:10.37,2013-04-26 17:17:00,
2013-04-26 12:22:00,74.1,27.9,30.00,NE,45,2.9,5.8,18,0.00,CLR,,0.00,WeatherDisplay:10.37,2013-04-26 17:22:00,
2013-04-26 12:27:00,74.1,31.7,30.00,North,0,3.8,6.2,21,0.00,CLR,,0.00,WeatherDisplay:10.37,2013-04-26 17:27:00,
2013-04-26 12:32:00,74.3,31.8,30.00,NE,45,2.9,6.9,21,0.00,CLR,,0.00,WeatherDisplay:10.37,2013-04-26 17:32:00,
2013-04-26 12:37:00,75.0,32.4,29.97,East,90,6.0,8.1,21,0.00,CLR,,0.00,WeatherDisplay:10.37,2013-04-26 17:37:00,
2013-04-26 12:42:00,75.2,28.8,29.97,ENE,68,4.3,8.1,18,0.00,CLR,,0.00,WeatherDisplay:10.37,2013-04-26 17:42:00,
2013-04-26 12:47:00,75.4,28.9,29.97,SE,135,4.7,6.9,18,0.00,CLR,,0.00,WeatherDisplay:10.37,2013-04-26 17:47:00,
2013-04-26 12:52:00,75.6,31.6,29.97,ESE,112,4.5,5.8,20,0.00,CLR,,0.00,WeatherDisplay:10.37,2013-04-26 17:52:00,
2013-04-26 12:57:00,75.9,29.3,29.97,SE,135,4.5,6.9,18,0.00,CLR,,0.00,WeatherDisplay:10.37,2013-04-26 17:57:00,
2013-04-26 13:02:00,75.9,31.9,29.97,ESE,112,4.0,8.1,20,0.00,CLR,,0.00,WeatherDisplay:10.37,2013-04-26 18:02:00,
2013-04-26 13:07:00,76.1,29.5,29.97,SE,135,6.2,8.1,18,0.00,CLR,,0.00,WeatherDisplay:10.37,2013-04-26 18:07:00,
2013-04-26 13:12:00,76.1,29.5,29.97,SSE,158,7.1,8.1,18,0.00,CLR,,0.00,WeatherDisplay:10.37,2013-04-26 18:12:00,
2013-04-26 13:17:00,76.5,29.8,29.97,SE,135,4.7,5.9,18,0.00,CLR,,0.00,WeatherDisplay:10.37,2013-04-26 18:17:00,
2013-04-26 13:22:00,76.6,29.9,29.97,SSE,158,5.6,6.9,18,0.00,CLR,,0.00,WeatherDisplay:10.37,2013-04-26 18:22:00,
2013-04-26 13:27:00,77.0,32.8,29.97,ENE,68,6.2,9.2,20,0.00,CLR,,0.00,WeatherDisplay:10.37,2013-04-26 18:27:00,
2013-04-26 13:32:00,77.0,30.2,29.97,ESE,112,6.4,8.1,18,0.00,CLR,,0.00,WeatherDisplay:10.37,2013-04-26 18:32:00,
2013-04-26 13:37:00,77.2,30.4,29.94,ESE,112,5.9,8.1,18,0.00,CLR,,0.00,WeatherDisplay:10.37,2013-04-26 18:37:00,
2013-04-26 13:42:00,77.5,33.3,29.94,East,90,5.6,7.6,20,0.00,CLR,,0.00,WeatherDisplay:10.37,2013-04-26 18:42:00,
2013-04-26 13:47:00,77.9,33.6,29.94,SSE,158,2.9,6.9,20,0.00,CLR,,0.00,WeatherDisplay:10.37,2013-04-26 18:47:00,
2013-04-26 13:52:00,78.1,33.7,29.94,East,90,5.6,7.1,20,0.00,CLR,,0.00,WeatherDisplay:10.37,2013-04-26 18:52:00,
2013-04-26 13:57:00,78.1,33.7,29.94,ESE,112,6.4,8.1,20,0.00,CLR,,0.00,WeatherDisplay:10.37,2013-04-26 18:57:00,
2013-04-26 14:02:00,78.3,31.3,29.94,East,90,4.9,6.9,18,0.00,CLR,,0.00,WeatherDisplay:10.37,2013-04-26 19:02:00,
2013-04-26 14:07:00,78.3,33.9,29.94,SE,135,4.0,6.9,20,0.00,CLR,,0.00,WeatherDisplay:10.37,2013-04-26 19:07:00,
2013-04-26 14:12:00,78.4,31.4,29.94,East,90,4.5,7.4,18,0.00,CLR,,0.00,WeatherDisplay:10.37,2013-04-26 19:12:00,
2013-04-26 14:17:00,78.8,34.3,29.94,South,180,5.9,9.2,20,0.00,CLR,,0.00,WeatherDisplay:10.37,2013-04-26 19:17:00,
2013-04-26 14:22:00,79.3,34.8,29.94,East,90,3.3,6.9,20,0.00,CLR,,0.00,WeatherDisplay:10.37,2013-04-26 19:22:00,
2013-04-26 14:27:00,79.3,30.7,29.94,SSE,158,4.9,12.7,17,0.00,CLR,,0.00,WeatherDisplay:10.37,2013-04-26 19:27:00,
2013-04-26 14:32:00,79.3,30.7,29.94,East,90,6.0,8.1,17,0.00,CLR,,0.00,WeatherDisplay:10.37,2013-04-26 19:32:00,
2013-04-26 14:37:00,79.2,34.6,29.91,SSE,158,6.4,8.7,20,0.00,CLR,,0.00,WeatherDisplay:10.37,2013-04-26 19:37:00,
2013-04-26 14:42:00,79.0,34.5,29.91,ESE,112,6.0,9.2,20,0.00,CLR,,0.00,WeatherDisplay:10.37,2013-04-26 19:42:00,
2013-04-26 14:47:00,79.0,30.4,29.91,East,90,4.5,8.1,17,0.00,CLR,,0.00,WeatherDisplay:10.37,2013-04-26 19:47:00,
2013-04-26 14:52:00,79.3,34.8,29.94,SSE,158,4.5,6.9,20,0.00,CLR,,0.00,WeatherDisplay:10.37,2013-04-26 19:52:00,
2013-04-26 14:57:00,79.3,34.8,29.94,East,90,6.2,9.2,20,0.00,CLR,,0.00,WeatherDisplay:10.37,2013-04-26 19:57:00,
2013-04-26 15:02:00,79.3,34.8,29.94,ESE,112,4.5,5.8,20,0.00,CLR,,0.00,WeatherDisplay:10.37,2013-04-26 20:02:00,
2013-04-26 15:07:00,79.9,35.2,29.91,SSW,202,4.3,5.8,20,0.00,CLR,,0.00,WeatherDisplay:10.37,2013-04-26 20:07:00,
2013-04-26 15:12:00,79.5,34.9,29.91,ESE,112,3.8,8.1,20,0.00,CLR,,0.00,WeatherDisplay:10.37,2013-04-26 20:12:00,
2013-04-26 15:17:00,79.7,35.1,29.91,ESE,112,5.4,5.8,20,0.00,CLR,,0.00,WeatherDisplay:10.37,2013-04-26 20:17:00,
2013-04-26 15:22:00,79.5,34.9,29.91,SSE,158,4.9,7.6,20,0.00,CLR,,0.00,WeatherDisplay:10.37,2013-04-26 20:22:00,
2013-04-26 15:27:00,79.5,34.9,29.91,SSE,158,6.0,8.1,20,0.00,CLR,,0.00,WeatherDisplay:10.37,2013-04-26 20:27:00,
2013-04-26 15:32:00,79.3,34.8,29.91,SSE,158,5.6,9.2,20,0.00,CLR,,0.00,WeatherDisplay:10.37,2013-04-26 20:32:00,
2013-04-26 15:37:00,79.5,34.9,29.91,ESE,112,4.0,5.6,20,0.00,CLR,,0.00,WeatherDisplay:10.37,2013-04-26 20:37:00,
2013-04-26 15:42:00,79.7,35.1,29.91,SE,135,4.0,8.1,20,0.00,CLR,,0.00,WeatherDisplay:10.37,2013-04-26 20:42:00,
2013-04-26 15:47:00,79.5,34.9,29.91,ESE,112,6.9,8.5,20,0.00,CLR,,0.00,WeatherDisplay:10.37,2013-04-26 20:47:00,
2013-04-26 15:52:00,79.7,35.1,29.91,East,90,2.0,5.8,20,0.00,CLR,,0.00,WeatherDisplay:10.37,2013-04-26 20:52:00,
2013-04-26 15:57:00,79.7,35.1,29.91,SE,135,8.1,11.5,20,0.00,CLR,,0.00,WeatherDisplay:10.37,2013-04-26 20:57:00,
2013-04-26 16:02:00,79.7,35.1,29.91,SE,135,7.8,11.5,20,0.00,CLR,,0.00,WeatherDisplay:10.37,2013-04-26 21:02:00,
2013-04-26 16:07:00,79.5,34.9,29.91,SW,225,4.5,5.8,20,0.00,CLR,,0.00,WeatherDisplay:10.37,2013-04-26 21:07:00,
2013-04-26 16:12:00,80.1,35.4,29.91,SE,135,2.4,6.9,20,0.00,CLR,,0.00,WeatherDisplay:10.37,2013-04-26 21:12:00,
2013-04-26 16:17:00,79.5,30.9,29.91,SSW,202,7.1,8.1,17,0.00,CLR,,0.00,WeatherDisplay:10.37,2013-04-26 21:17:00,
2013-04-26 16:22:00,79.5,34.9,29.91,SSE,158,5.4,8.1,20,0.00,CLR,,0.00,WeatherDisplay:10.37,2013-04-26 21:22:00,
2013-04-26 16:27:00,79.7,35.1,29.91,SE,135,3.8,7.4,20,0.00,CLR,,0.00,WeatherDisplay:10.37,2013-04-26 21:27:00,
2013-04-26 16:32:00,79.5,34.9,29.91,South,180,4.0,9.4,20,0.00,CLR,,0.00,WeatherDisplay:10.37,2013-04-26 21:32:00,
2013-04-26 16:37:00,79.2,34.6,29.91,SE,135,4.7,9.2,20,0.00,CLR,,0.00,WeatherDisplay:10.37,2013-04-26 21:37:00,
2013-04-26 16:42:00,79.3,34.8,29.91,SE,135,5.4,9.7,20,0.00,CLR,,0.00,WeatherDisplay:10.37,2013-04-26 21:42:00,
2013-04-26 16:47:00,79.3,34.8,29.91,South,180,4.0,8.1,20,0.00,CLR,,0.00,WeatherDisplay:10.37,2013-04-26 21:47:00,
2013-04-26 16:52:00,79.0,34.5,29.91,South,180,6.9,7.4,20,0.00,CLR,,0.00,WeatherDisplay:10.37,2013-04-26 21:52:00,
2013-04-26 16:57:00,79.2,34.6,29.91,ESE,112,4.5,8.1,20,0.00,CLR,,0.00,WeatherDisplay:10.37,2013-04-26 21:57:00,
2013-04-26 17:02:00,79.3,34.8,29.91,SSW,202,4.3,6.9,20,0.00,CLR,,0.00,WeatherDisplay:10.37,2013-04-26 22:02:00,
2013-04-26 17:07:00,79.0,34.5,29.91,ESE,112,3.3,6.9,20,0.00,CLR,,0.00,WeatherDisplay:10.37,2013-04-26 22:07:00,
2013-04-26 17:12:00,79.0,34.5,29.91,South,180,3.8,6.9,20,0.00,CLR,,0.00,WeatherDisplay:10.37,2013-04-26 22:12:00,
2013-04-26 17:17:00,79.0,34.5,29.91,SSE,158,6.4,8.5,20,0.00,CLR,,0.00,WeatherDisplay:10.37,2013-04-26 22:17:00,
2013-04-26 17:22:00,78.8,34.3,29.91,SE,135,4.5,5.8,20,0.00,CLR,,0.00,WeatherDisplay:10.37,2013-04-26 22:22:00,
2013-04-26 17:27:00,79.0,34.5,29.91,SSE,158,5.4,8.1,20,0.00,CLR,,0.00,WeatherDisplay:10.37,2013-04-26 22:27:00,
2013-04-26 17:32:00,78.4,35.2,29.91,SE,135,4.9,6.0,21,0.00,CLR,,0.00,WeatherDisplay:10.37,2013-04-26 22:32:00,
2013-04-26 17:37:00,78.3,35.1,29.91,SSE,158,3.6,6.9,21,0.00,CLR,,0.00,WeatherDisplay:10.37,2013-04-26 22:37:00,
2013-04-26 17:42:00,78.4,35.2,29.91,SSE,158,3.6,6.9,21,0.00,CLR,,0.00,WeatherDisplay:10.37,2013-04-26 22:42:00,
2013-04-26 17:47:00,78.3,35.1,29.91,SE,135,2.9,5.8,21,0.00,CLR,,0.00,WeatherDisplay:10.37,2013-04-26 22:47:00,
2013-04-26 17:52:00,78.3,35.1,29.91,SSE,158,2.9,4.6,21,0.00,CLR,,0.00,WeatherDisplay:10.37,2013-04-26 22:52:00,
2013-04-26 17:57:00,78.1,35.0,29.91,SW,225,4.5,8.1,21,0.00,CLR,,0.00,WeatherDisplay:10.37,2013-04-26 22:57:00,
2013-04-26 18:02:00,77.9,34.8,29.91,SW,225,3.3,5.8,21,0.00,CLR,,0.00,WeatherDisplay:10.37,2013-04-26 23:02:00,
2013-04-26 18:07:00,77.5,35.7,29.91,SE,135,3.8,8.1,22,0.00,CLR,,0.00,WeatherDisplay:10.37,2013-04-26 23:07:00,
2013-04-26 18:12:00,77.4,35.5,29.91,SSE,158,5.9,6.9,22,0.00,CLR,,0.00,WeatherDisplay:10.37,2013-04-26 23:12:00,
2013-04-26 18:17:00,77.0,35.2,29.91,SE,135,4.7,6.0,22,0.00,CLR,,0.00,WeatherDisplay:10.37,2013-04-26 23:17:00,
2013-04-26 18:22:00,76.8,35.1,29.91,SW,225,4.5,5.6,22,0.00,CLR,,0.00,WeatherDisplay:10.37,2013-04-26 23:22:00,
2013-04-26 18:27:00,76.6,36.0,29.91,South,180,2.4,5.8,23,0.00,CLR,,0.00,WeatherDisplay:10.37,2013-04-26 23:27:00,
2013-04-26 18:32:00,76.5,35.9,29.91,SSE,158,4.7,6.0,23,0.00,CLR,,0.00,WeatherDisplay:10.37,2013-04-26 23:32:00,
2013-04-26 18:37:00,76.1,35.6,29.91,South,180,3.8,6.9,23,0.00,CLR,,0.00,WeatherDisplay:10.37,2013-04-26 23:37:00,
2013-04-26 18:42:00,76.1,35.6,29.91,South,180,3.3,4.6,23,0.00,CLR,,0.00,WeatherDisplay:10.37,2013-04-26 23:42:00,
2013-04-26 18:47:00,75.6,36.2,29.91,SSE,158,5.4,7.6,24,0.00,CLR,,0.00,WeatherDisplay:10.37,2013-04-26 23:47:00,
2013-04-26 18:52:00,75.4,36.1,29.91,SSE,158,3.3,5.8,24,0.00,CLR,,0.00,WeatherDisplay:10.37,2013-04-26 23:52:00,
2013-04-26 19:05:00,74.1,36.0,29.91,SSE,158,2.9,6.9,25,0.00,CLR,,0.00,WeatherDisplay:10.37,2013-04-27 00:05:00,
2013-04-26 19:11:00,73.6,35.6,29.91,SE,135,4.0,4.7,25,0.00,CLR,,0.00,WeatherDisplay:10.37,2013-04-27 00:11:00,
2013-04-26 19:16:00,73.0,36.1,29.91,ESE,112,4.3,5.8,26,0.00,CLR,,0.00,WeatherDisplay:10.37,2013-04-27 00:16:00,
2013-04-26 19:21:00,72.7,35.8,29.91,SSE,158,2.4,4.6,26,0.00,CLR,,0.00,WeatherDisplay:10.37,2013-04-27 00:21:00,
2013-04-26 19:26:00,72.3,36.4,29.91,SSE,158,2.4,4.6,27,0.00,CLR,,0.00,WeatherDisplay:10.37,2013-04-27 00:26:00,
2013-04-26 19:31:00,72.1,37.2,29.91,ESE,112,2.6,4.6,28,0.00,CLR,,0.00,WeatherDisplay:10.37,2013-04-27 00:31:00,
2013-04-26 19:36:00,72.0,38.0,29.91,SE,135,3.8,5.8,29,0.00,CLR,,0.00,WeatherDisplay:10.37,2013-04-27 00:36:00,
2013-04-26 19:41:00,71.4,37.5,29.91,SSE,158,2.6,3.5,29,0.00,CLR,,0.00,WeatherDisplay:10.37,2013-04-27 00:41:00,
2013-04-26 19:46:00,71.1,37.2,29.91,ESE,112,2.6,4.0,29,0.00,CLR,,0.00,WeatherDisplay:10.37,2013-04-27 00:46:00,
2013-04-26 19:51:00,70.9,37.9,29.91,ESE,112,1.6,2.3,30,0.00,CLR,,0.00,WeatherDisplay:10.37,2013-04-27 00:51:00,
2013-04-26 19:56:00,70.5,37.6,29.91,SE,135,1.6,2.4,30,0.00,CLR,,0.00,WeatherDisplay:10.37,2013-04-27 00:56:00,
2013-04-26 20:01:00,70.2,38.1,29.91,ESE,112,2.2,2.9,31,0.00,CLR,,0.00,WeatherDisplay:10.37,2013-04-27 01:01:00,
2013-04-26 20:06:00,69.8,38.6,29.91,ESE,112,2.0,2.3,32,0.00,CLR,,0.00,WeatherDisplay:10.37,2013-04-27 01:06:00,
2013-04-26 20:11:00,69.3,38.1,29.91,East,90,2.2,2.6,32,0.00,CLR,,0.00,WeatherDisplay:10.37,2013-04-27 01:11:00,
2013-04-26 20:16:00,68.7,38.4,29.91,ESE,112,2.2,2.4,33,0.00,CLR,,0.00,WeatherDisplay:10.37,2013-04-27 01:16:00,
2013-04-26 20:21:00,68.5,38.3,29.91,ESE,112,1.6,2.3,33,0.00,CLR,,0.00,WeatherDisplay:10.37,2013-04-27 01:21:00,
2013-04-26 20:26:00,68.5,38.3,29.91,ESE,112,2.6,3.5,33,0.00,CLR,,0.00,WeatherDisplay:10.37,2013-04-27 01:26:00,
2013-04-26 20:31:00,68.4,38.1,29.91,SE,135,2.4,3.5,33,0.00,CLR,,0.00,WeatherDisplay:10.37,2013-04-27 01:31:00,
2013-04-26 20:36:00,68.2,38.0,29.91,SE,135,2.0,2.3,33,0.00,CLR,,0.00,WeatherDisplay:10.37,2013-04-27 01:36:00,
2013-04-26 20:41:00,68.2,38.0,29.91,ESE,112,1.4,2.3,33,0.00,CLR,,0.00,WeatherDisplay:10.37,2013-04-27 01:41:00,
2013-04-26 20:46:00,68.2,38.0,29.91,SE,135,2.2,2.6,33,0.00,CLR,,0.00,WeatherDisplay:10.37,2013-04-27 01:46:00,
2013-04-26 20:51:00,67.8,39.2,29.91,South,180,1.6,3.5,35,0.00,CLR,,0.00,WeatherDisplay:10.37,2013-04-27 01:51:00,
2013-04-26 20:56:00,67.6,39.0,29.91,SSE,158,2.6,2.9,35,0.00,CLR,,0.00,WeatherDisplay:10.37,2013-04-27 01:56:00,
2013-04-26 21:01:00,67.6,39.0,29.91,South,180,2.0,2.4,35,0.00,CLR,,0.00,WeatherDisplay:10.37,2013-04-27 02:01:00,
2013-04-26 21:06:00,67.5,38.8,29.91,South,180,1.6,2.6,35,0.00,CLR,,0.00,WeatherDisplay:10.37,2013-04-27 02:06:00,
2013-04-26 21:11:00,67.3,38.7,29.91,SSW,202,1.4,2.4,35,0.00,CLR,,0.00,WeatherDisplay:10.37,2013-04-27 02:11:00,
2013-04-26 21:16:00,67.1,38.5,29.91,SSW,202,2.0,2.4,35,0.00,CLR,,0.00,WeatherDisplay:10.37,2013-04-27 02:16:00,
2013-04-26 21:21:00,66.9,38.4,29.91,SSW,202,2.0,2.3,35,0.00,CLR,,0.00,WeatherDisplay:10.37,2013-04-27 02:21:00,
2013-04-26 21:26:00,66.6,39.5,29.91,SW,225,2.2,2.6,37,0.00,CLR,,0.00,WeatherDisplay:10.37,2013-04-27 02:26:00,
2013-04-26 21:31:00,66.2,39.8,29.91,West,270,1.4,2.3,38,0.00,CLR,,0.00,WeatherDisplay:10.37,2013-04-27 02:31:00,
2013-04-26 21:36:00,66.0,41.0,29.91,West,270,0.0,0.0,40,0.00,CLR,,0.00,WeatherDisplay:10.37,2013-04-27 02:36:00,
2013-04-26 21:41:00,65.8,41.5,29.91,West,270,1.4,2.3,41,0.00,CLR,,0.00,WeatherDisplay:10.37,2013-04-27 02:41:00,
2013-04-26 21:46:00,65.7,40.7,29.91,West,270,0.0,1.2,40,0.00,CLR,,0.00,WeatherDisplay:10.37,2013-04-27 02:46:00,
2013-04-26 21:51:00,65.5,40.5,29.94,West,270,1.2,1.2,40,0.00,CLR,,0.00,WeatherDisplay:10.37,2013-04-27 02:51:00,
2013-04-26 21:56:00,65.5,40.5,29.94,West,270,0.0,0.0,40,0.00,CLR,,0.00,WeatherDisplay:10.37,2013-04-27 02:56:00,
2013-04-26 22:01:00,65.3,41.0,29.94,West,270,0.0,0.0,41,0.00,CLR,,0.00,WeatherDisplay:10.37,2013-04-27 03:01:00,
2013-04-26 22:06:00,65.1,40.2,29.94,West,270,0.0,0.0,40,0.00,CLR,,0.00,WeatherDisplay:10.37,2013-04-27 03:06:00,
2013-04-26 22:11:00,64.8,41.1,29.94,West,270,0.0,0.0,42,0.00,CLR,,0.00,WeatherDisplay:10.37,2013-04-27 03:11:00,
2013-04-26 22:16:00,64.8,41.7,29.94,West,270,0.0,0.0,43,0.00,CLR,,0.00,WeatherDisplay:10.37,2013-04-27 03:16:00,
2013-04-26 22:21:00,64.8,41.1,29.94,West,270,0.0,0.0,42,0.00,CLR,,0.00,WeatherDisplay:10.37,2013-04-27 03:21:00,
2013-04-26 22:26:00,64.4,40.8,29.94,North,0,0.0,0.0,42,0.00,CLR,,0.00,WeatherDisplay:10.37,2013-04-27 03:26:00,
2013-04-26 22:31:00,64.2,41.8,29.94,North,0,0.0,0.0,44,0.00,CLR,,0.00,WeatherDisplay:10.37,2013-04-27 03:31:00,
2013-04-26 22:36:00,64.2,41.8,29.94,North,0,0.0,0.0,44,0.00,CLR,,0.00,WeatherDisplay:10.37,2013-04-27 03:36:00,
2013-04-26 22:41:00,64.0,41.7,29.94,North,0,0.0,0.0,44,0.00,CLR,,0.00,WeatherDisplay:10.37,2013-04-27 03:41:00,
2013-04-26 22:46:00,63.9,41.5,29.94,North,0,0.0,0.0,44,0.00,CLR,,0.00,WeatherDisplay:10.37,2013-04-27 03:46:00,
2013-04-26 22:51:00,63.5,41.2,29.91,North,0,0.0,0.0,44,0.00,CLR,,0.00,WeatherDisplay:10.37,2013-04-27 03:51:00,
2013-04-26 22:56:00,63.3,41.0,29.91,North,0,0.0,0.0,44,0.00,CLR,,0.00,WeatherDisplay:10.37,2013-04-27 03:56:00,
2013-04-26 23:01:00,63.1,41.4,29.91,NNE,22,0.0,0.0,45,0.00,CLR,,0.00,WeatherDisplay:10.37,2013-04-27 04:01:00,
2013-04-26 23:04:00,63.3,42.7,29.91,ENE,68,0.0,0.0,47,0.00,CLR,,0.00,WeatherDisplay:10.37,2013-04-27 04:04:00,
2013-04-26 23:05:00,63.3,43.8,29.91,ENE,68,2.0,2.4,49,0.00,CLR,,0.00,WeatherDisplay:10.37,2013-04-27 04:05:00,
2013-04-26 23:06:00,63.3,44.4,29.91,ENE,68,1.6,2.3,50,0.00,CLR,,0.00,WeatherDisplay:10.37,2013-04-27 04:06:00,
2013-04-26 23:07:00,63.1,44.2,29.91,ENE,68,1.6,2.3,50,0.00,CLR,,0.00,WeatherDisplay:10.37,2013-04-27 04:07:00,
2013-04-26 23:12:00,63.1,44.2,29.91,SSE,158,0.0,0.0,50,0.00,CLR,,0.00,WeatherDisplay:10.37,2013-04-27 04:12:00,
2013-04-26 23:17:00,63.5,45.0,29.91,South,180,1.4,2.6,51,0.00,CLR,,0.00,WeatherDisplay:10.37,2013-04-27 04:17:00,
2013-04-26 23:22:00,63.9,45.4,29.91,SSW,202,0.9,1.6,51,0.00,CLR,,0.00,WeatherDisplay:10.37,2013-04-27 04:22:00,
2013-04-26 23:27:00,64.6,46.6,29.91,South,180,1.4,2.3,52,0.00,CLR,,0.00,WeatherDisplay:10.37,2013-04-27 04:27:00,
2013-04-26 23:32:00,64.9,46.4,29.91,WSW,248,0.0,0.0,51,0.00,CLR,,0.00,WeatherDisplay:10.37,2013-04-27 04:32:00,
2013-04-26 23:37:00,64.9,45.8,29.94,WSW,248,0.0,0.0,50,0.00,CLR,,0.00,WeatherDisplay:10.37,2013-04-27 04:37:00,
2013-04-26 23:42:00,64.8,44.6,29.94,WSW,248,0.0,0.0,48,0.00,CLR,,0.00,WeatherDisplay:10.37,2013-04-27 04:42:00,
2013-04-26 23:47:00,64.6,45.0,29.94,WSW,248,0.0,0.0,49,0.00,CLR,,0.00,WeatherDisplay:10.37,2013-04-27 04:47:00,
2013-04-26 23:52:00,64.2,45.2,29.94,WSW,248,0.0,0.0,50,0.00,CLR,,0.00,WeatherDisplay:10.37,2013-04-27 04:52:00,
2013-04-26 23:57:00,63.5,45.0,29.94,North,0,0.0,0.0,51,0.00,CLR,,0.00,WeatherDisplay:10.37,2013-04-27 04:57:00,